SHT6DE EGPH-EGCC

Flight info

Callsign SHT6DE
Flight time 0h 50m
Altitude 25000
Route GOSAM P600 FENIK L612 LAKEY
Aircraft A320/M-SDE3FGHIRWY/LB1

Departure

Time 2026-04-20 22:03
Airport Edinburgh Airport (EGPH)

Arrival

Time 2026-04-20 22:54
Airport Manchester Airport (EGCC)
Time Latitude Longitude Altitude Speed Heading
2026-04-20 21:39 55.94919 -3.36428 105 ft 0 kts 148°
2026-04-20 21:53 55.94940 -3.36452 113 ft 4 kts 148°
2026-04-20 21:54 55.94961 -3.36476 113 ft 4 kts 161°
2026-04-20 21:54 55.94985 -3.36475 114 ft 4 kts 222°
2026-04-20 21:54 55.94997 -3.36446 112 ft 4 kts 239°
2026-04-20 21:54 55.95004 -3.36426 116 ft 0 kts 239°
2026-04-20 21:57 55.94994 -3.36456 112 ft 5 kts 238°
2026-04-20 21:57 55.94971 -3.36521 113 ft 0 kts 237°
2026-04-20 21:58 55.94949 -3.36584 116 ft 12 kts 238°
2026-04-20 21:58 55.94901 -3.36730 114 ft 12 kts 248°
2026-04-20 21:58 55.94923 -3.36871 115 ft 13 kts 268°
2026-04-20 21:58 55.94881 -3.37032 116 ft 16 kts 239°
2026-04-20 21:59 55.94815 -3.37213 114 ft 19 kts 236°
2026-04-20 21:59 55.94739 -3.37431 115 ft 22 kts 238°
2026-04-20 21:59 55.94653 -3.37682 115 ft 25 kts 239°
2026-04-20 21:59 55.94588 -3.37889 114 ft 8 kts 252°
2026-04-20 22:00 55.94609 -3.37968 114 ft 0 kts 326°
2026-04-20 22:00 55.94612 -3.37971 114 ft 2 kts 326°
2026-04-20 22:00 55.94635 -3.37998 114 ft 6 kts 327°
2026-04-20 22:00 55.94701 -3.38056 114 ft 12 kts 358°
2026-04-20 22:01 55.94743 -3.38006 115 ft 0 kts 53°
2026-04-20 22:03 55.94771 -3.37931 113 ft 34 kts 58°
2026-04-20 22:03 55.95021 -3.37190 112 ft 102 kts 58°
2026-04-20 22:03 55.95470 -3.35850 175 ft 142 kts 61°
2026-04-20 22:03 55.95946 -3.34383 835 ft 136 kts 53°
2026-04-20 22:04 55.96632 -3.33206 1429 ft 139 kts 44°
2026-04-20 22:04 55.97400 -3.32003 1737 ft 157 kts 45°
2026-04-20 22:04 55.98270 -3.30612 2045 ft 179 kts 44°
2026-04-20 22:04 55.99453 -3.29530 2339 ft 211 kts 11°
2026-04-20 22:05 56.00974 -3.30147 2743 ft 246 kts 329°
2026-04-20 22:05 56.02076 -3.32610 3406 ft 267 kts 290°
2026-04-20 22:05 56.02172 -3.35934 4324 ft 274 kts 255°
2026-04-20 22:05 56.01423 -3.39072 5317 ft 276 kts 238°
2026-04-20 22:06 56.00391 -3.41982 6321 ft 278 kts 234°
2026-04-20 22:06 55.99319 -3.44884 7281 ft 282 kts 236°
2026-04-20 22:06 55.98282 -3.47881 8191 ft 285 kts 236°
2026-04-20 22:06 55.97020 -3.50498 9051 ft 285 kts 214°
2026-04-20 22:07 55.95325 -3.52222 9942 ft 285 kts 206°
2026-04-20 22:07 55.93603 -3.53998 10798 ft 287 kts 202°
2026-04-20 22:07 55.91710 -3.55003 11638 ft 284 kts 189°
2026-04-20 22:07 55.89773 -3.55753 12500 ft 285 kts 189°
2026-04-20 22:08 55.87834 -3.56489 13385 ft 285 kts 188°
2026-04-20 22:08 55.85893 -3.57224 14294 ft 284 kts 188°
2026-04-20 22:08 55.83968 -3.57952 15112 ft 282 kts 188°
2026-04-20 22:08 55.82062 -3.58677 15951 ft 279 kts 188°
2026-04-20 22:09 55.80181 -3.59397 16819 ft 274 kts 188°
2026-04-20 22:09 55.78331 -3.60110 17704 ft 269 kts 188°
2026-04-20 22:09 55.76499 -3.60818 18646 ft 262 kts 188°
2026-04-20 22:09 55.74767 -3.61486 19447 ft 254 kts 188°
2026-04-20 22:10 55.73031 -3.62151 20105 ft 253 kts 188°
2026-04-20 22:10 55.71241 -3.62829 20287 ft 273 kts 188°
2026-04-20 22:10 55.69308 -3.63555 20419 ft 294 kts 188°
2026-04-20 22:10 55.67238 -3.64336 20546 ft 314 kts 189°
2026-04-20 22:11 55.65039 -3.65169 20683 ft 332 kts 189°
2026-04-20 22:11 55.62717 -3.66054 20810 ft 351 kts 189°
2026-04-20 22:11 55.60278 -3.66989 21031 ft 364 kts 190°
2026-04-20 22:11 55.57780 -3.67951 21510 ft 370 kts 190°
2026-04-20 22:12 55.55249 -3.68926 22051 ft 374 kts 190°
2026-04-20 22:12 55.52713 -3.69896 22607 ft 378 kts 190°
2026-04-20 22:12 55.50110 -3.70883 23159 ft 382 kts 190°
2026-04-20 22:12 55.47500 -3.71869 23717 ft 385 kts 191°
2026-04-20 22:13 55.44866 -3.72863 24215 ft 389 kts 191°
2026-04-20 22:13 55.42200 -3.73868 24665 ft 393 kts 191°
2026-04-20 22:13 55.40788 -3.74396 24913 ft 395 kts 191°
2026-04-20 22:13 55.38089 -3.75377 25297 ft 399 kts 191°
2026-04-20 22:14 55.35364 -3.76344 25392 ft 400 kts 191°
2026-04-20 22:14 55.32633 -3.77294 25416 ft 401 kts 191°
2026-04-20 22:14 55.29883 -3.78240 25414 ft 406 kts 191°
2026-04-20 22:14 55.27055 -3.79204 25418 ft 422 kts 191°
2026-04-20 22:15 55.24132 -3.80187 25413 ft 434 kts 191°
2026-04-20 22:15 55.21146 -3.81173 25415 ft 438 kts 190°
2026-04-20 22:15 55.18076 -3.81561 25410 ft 449 kts 175°
2026-04-20 22:15 55.15009 -3.80440 25408 ft 453 kts 159°
2026-04-20 22:16 55.12242 -3.77840 25410 ft 454 kts 143°
2026-04-20 22:16 55.11400 -3.76712 25410 ft 454 kts 141°
2026-04-20 22:16 55.09329 -3.73845 25407 ft 455 kts 141°
2026-04-20 22:16 55.06821 -3.70346 25406 ft 456 kts 141°
2026-04-20 22:17 55.04342 -3.66878 25407 ft 457 kts 141°
2026-04-20 22:17 55.01896 -3.63462 25404 ft 457 kts 141°
2026-04-20 22:17 54.99368 -3.59974 25401 ft 458 kts 143°
2026-04-20 22:17 54.96682 -3.56999 25403 ft 458 kts 151°
2026-04-20 22:18 54.93909 -3.54395 25404 ft 459 kts 151°
2026-04-20 22:18 54.91065 -3.51726 25401 ft 459 kts 152°
2026-04-20 22:18 54.88253 -3.49087 25400 ft 459 kts 152°
2026-04-20 22:18 54.85441 -3.46450 25396 ft 460 kts 152°
2026-04-20 22:19 54.82631 -3.43816 25394 ft 460 kts 152°
2026-04-20 22:19 54.79819 -3.41181 25393 ft 460 kts 152°
2026-04-20 22:19 54.76999 -3.38543 25390 ft 460 kts 152°
2026-04-20 22:19 54.74182 -3.35912 25388 ft 460 kts 152°
2026-04-20 22:20 54.71355 -3.33330 25386 ft 460 kts 153°
2026-04-20 22:20 54.68471 -3.30945 25388 ft 460 kts 156°
2026-04-20 22:20 54.65543 -3.28731 25384 ft 460 kts 157°
2026-04-20 22:20 54.62588 -3.26609 25384 ft 460 kts 158°
2026-04-20 22:21 54.59623 -3.24513 25374 ft 460 kts 158°
2026-04-20 22:21 54.56667 -3.22405 25377 ft 460 kts 158°
2026-04-20 22:21 54.53715 -3.20256 25376 ft 461 kts 157°
2026-04-20 22:21 54.50763 -3.18069 25364 ft 461 kts 157°
2026-04-20 22:22 54.47822 -3.15865 25328 ft 463 kts 156°
2026-04-20 22:22 54.44869 -3.13645 25081 ft 464 kts 156°
2026-04-20 22:22 54.41913 -3.11430 24833 ft 464 kts 157°
2026-04-20 22:22 54.38942 -3.09219 24589 ft 465 kts 157°
2026-04-20 22:23 54.35985 -3.07030 23863 ft 461 kts 157°
2026-04-20 22:23 54.33050 -3.04861 22929 ft 457 kts 156°
2026-04-20 22:23 54.30149 -3.02719 22129 ft 450 kts 156°
2026-04-20 22:23 54.27289 -3.00615 21248 ft 447 kts 156°
2026-04-20 22:24 54.24472 -2.98491 20525 ft 439 kts 153°
2026-04-20 22:24 54.21847 -2.95864 19660 ft 436 kts 146°
2026-04-20 22:24 54.19325 -2.93026 18775 ft 433 kts 146°
2026-04-20 22:24 54.16815 -2.90193 17824 ft 430 kts 146°
2026-04-20 22:25 54.14337 -2.87399 16971 ft 425 kts 146°
2026-04-20 22:25 54.12990 -2.85885 16499 ft 423 kts 146°
2026-04-20 22:25 54.10586 -2.83191 15673 ft 420 kts 146°
2026-04-20 22:25 54.08143 -2.80466 14815 ft 418 kts 146°
2026-04-20 22:26 54.05746 -2.77788 13954 ft 417 kts 146°
2026-04-20 22:26 54.03332 -2.75092 13129 ft 414 kts 146°
2026-04-20 22:26 54.00937 -2.72422 12362 ft 410 kts 146°
2026-04-20 22:27 53.96381 -2.67363 12027 ft 371 kts 146°
2026-04-20 22:27 53.94242 -2.64997 11893 ft 354 kts 146°
2026-04-20 22:27 53.92226 -2.62767 11764 ft 339 kts 146°
2026-04-20 22:27 53.90290 -2.60629 11633 ft 325 kts 146°
2026-04-20 22:28 53.88430 -2.58579 11510 ft 314 kts 146°
2026-04-20 22:28 53.86629 -2.56593 11320 ft 305 kts 146°
2026-04-20 22:28 53.84976 -2.54771 11075 ft 296 kts 146°
2026-04-20 22:28 53.83254 -2.52875 10828 ft 295 kts 145°
2026-04-20 22:29 53.81529 -2.50976 10512 ft 295 kts 145°
2026-04-20 22:29 53.79820 -2.49096 10027 ft 292 kts 145°
2026-04-20 22:29 53.78124 -2.47228 9531 ft 290 kts 145°
2026-04-20 22:29 53.76418 -2.45351 9080 ft 292 kts 146°
2026-04-20 22:30 53.74724 -2.43493 8686 ft 291 kts 146°
2026-04-20 22:30 53.73040 -2.41652 8147 ft 285 kts 146°
2026-04-20 22:30 53.71382 -2.39840 7648 ft 286 kts 146°
2026-04-20 22:30 53.69804 -2.38128 7281 ft 284 kts 146°
2026-04-20 22:31 53.68136 -2.36323 6967 ft 276 kts 146°
2026-04-20 22:31 53.66527 -2.34584 6652 ft 273 kts 146°
2026-04-20 22:31 53.64883 -2.33024 6403 ft 272 kts 160°
2026-04-20 22:31 53.63010 -2.32728 6368 ft 274 kts 189°
2026-04-20 22:32 53.61282 -2.33934 6371 ft 265 kts 218°
2026-04-20 22:32 53.60004 -2.36078 6375 ft 256 kts 229°
2026-04-20 22:32 53.58850 -2.38355 6378 ft 255 kts 230°
2026-04-20 22:32 53.57715 -2.40637 6367 ft 254 kts 231°
2026-04-20 22:33 53.56583 -2.42921 6380 ft 254 kts 231°
2026-04-20 22:33 53.55450 -2.45208 6377 ft 254 kts 231°
2026-04-20 22:33 53.54318 -2.47492 6380 ft 254 kts 230°
2026-04-20 22:33 53.53210 -2.49730 6371 ft 245 kts 230°
2026-04-20 22:34 53.52125 -2.51919 6369 ft 244 kts 231°
2026-04-20 22:34 53.50978 -2.54017 6377 ft 243 kts 216°
2026-04-20 22:34 53.49438 -2.55090 6379 ft 242 kts 187°
2026-04-20 22:34 53.47759 -2.55275 6377 ft 242 kts 180°
2026-04-20 22:35 53.46076 -2.55315 6377 ft 242 kts 179°
2026-04-20 22:35 53.44389 -2.55335 6373 ft 242 kts 179°
2026-04-20 22:35 53.42703 -2.55351 6377 ft 242 kts 179°
2026-04-20 22:35 53.41020 -2.55367 6297 ft 241 kts 179°
2026-04-20 22:36 53.39341 -2.55381 5984 ft 240 kts 179°
2026-04-20 22:36 53.37676 -2.55395 5665 ft 240 kts 179°
2026-04-20 22:36 53.36006 -2.55408 5336 ft 240 kts 179°
2026-04-20 22:36 53.34338 -2.55422 5008 ft 240 kts 179°
2026-04-20 22:37 53.32650 -2.55435 4663 ft 240 kts 179°
2026-04-20 22:37 53.30985 -2.55448 4329 ft 239 kts 179°
2026-04-20 22:37 53.29350 -2.55462 4003 ft 230 kts 179°
2026-04-20 22:37 53.27780 -2.55476 3689 ft 222 kts 179°
2026-04-20 22:38 53.26267 -2.55445 3381 ft 213 kts 170°
2026-04-20 22:38 53.24975 -2.54477 3102 ft 203 kts 133°
2026-04-20 22:38 53.24310 -2.52505 2994 ft 190 kts 99°
2026-04-20 22:38 53.24407 -2.50394 3032 ft 182 kts 69°
2026-04-20 22:39 53.25086 -2.48651 3007 ft 179 kts 51°
2026-04-20 22:39 53.25877 -2.47043 2981 ft 179 kts 51°
2026-04-20 22:39 53.26664 -2.45436 2831 ft 178 kts 52°
2026-04-20 22:39 53.27443 -2.43839 2614 ft 177 kts 52°
2026-04-20 22:40 53.28217 -2.42251 2380 ft 176 kts 52°
2026-04-20 22:40 53.28986 -2.40670 2154 ft 174 kts 52°
2026-04-20 22:40 53.29747 -2.39104 1898 ft 172 kts 52°
2026-04-20 22:40 53.30478 -2.37601 1662 ft 158 kts 52°
2026-04-20 22:41 53.31120 -2.36279 1460 ft 139 kts 52°
2026-04-20 22:41 53.31706 -2.35073 1273 ft 133 kts 52°
2026-04-20 22:41 53.32282 -2.33884 1071 ft 131 kts 51°
2026-04-20 22:41 53.32855 -2.32702 875 ft 131 kts 52°
2026-04-20 22:42 53.33426 -2.31524 693 ft 130 kts 51°
2026-04-20 22:42 53.33996 -2.30350 511 ft 130 kts 51°
2026-04-20 22:42 53.34560 -2.29184 324 ft 129 kts 51°
2026-04-20 22:42 53.35111 -2.28046 233 ft 113 kts 51°
2026-04-20 22:43 53.35660 -2.26916 458 ft 135 kts 50°
2026-04-20 22:43 53.36264 -2.25738 1244 ft 139 kts 50°
2026-04-20 22:43 53.36932 -2.24401 1768 ft 160 kts 51°
2026-04-20 22:43 53.37686 -2.22886 2150 ft 179 kts 51°
2026-04-20 22:44 53.38531 -2.21190 2589 ft 196 kts 51°
2026-04-20 22:44 53.39321 -2.19313 3240 ft 202 kts 67°
2026-04-20 22:44 53.39498 -2.16982 3153 ft 204 kts 101°
2026-04-20 22:44 53.38804 -2.14954 3029 ft 204 kts 139°
2026-04-20 22:45 53.37514 -2.14066 3015 ft 207 kts 176°
2026-04-20 22:45 53.36130 -2.14650 3022 ft 210 kts 211°
2026-04-20 22:45 53.34949 -2.16113 3019 ft 212 kts 219°
2026-04-20 22:45 53.33824 -2.17719 3013 ft 212 kts 220°
2026-04-20 22:46 53.32663 -2.19412 3013 ft 229 kts 220°
2026-04-20 22:46 53.31454 -2.21182 3009 ft 232 kts 220°
2026-04-20 22:46 53.30239 -2.22962 3013 ft 232 kts 220°
2026-04-20 22:46 53.29025 -2.24739 3016 ft 232 kts 220°
2026-04-20 22:47 53.27807 -2.26523 3012 ft 232 kts 220°
2026-04-20 22:47 53.26591 -2.28303 3017 ft 233 kts 220°
2026-04-20 22:47 53.25375 -2.30082 3013 ft 232 kts 220°
2026-04-20 22:47 53.24162 -2.31858 3005 ft 232 kts 220°
2026-04-20 22:48 53.22947 -2.33633 3006 ft 232 kts 220°
2026-04-20 22:48 53.21729 -2.35413 3005 ft 232 kts 220°
2026-04-20 22:48 53.20909 -2.36610 2999 ft 229 kts 220°
2026-04-20 22:48 53.19546 -2.39076 2993 ft 213 kts 247°
2026-04-20 22:49 53.19325 -2.40647 2985 ft 202 kts 272°
2026-04-20 22:49 53.19731 -2.42754 2889 ft 187 kts 310°
2026-04-20 22:49 53.20783 -2.43880 2597 ft 180 kts 353°
2026-04-20 22:49 53.22000 -2.43658 2510 ft 178 kts 16°
2026-04-20 22:50 53.23243 -2.43437 2500 ft 181 kts
2026-04-20 22:50 53.24501 -2.43473 2497 ft 178 kts
2026-04-20 22:50 53.25693 -2.43546 2499 ft 167 kts
2026-04-20 22:50 53.26835 -2.43488 2486 ft 162 kts 14°
2026-04-20 22:51 53.27847 -2.42755 2425 ft 156 kts 37°
2026-04-20 22:51 53.28554 -2.41552 2252 ft 139 kts 52°
2026-04-20 22:51 53.29151 -2.40327 2081 ft 133 kts 52°
2026-04-20 22:51 53.29733 -2.39132 1897 ft 132 kts 52°
2026-04-20 22:52 53.30307 -2.37951 1720 ft 131 kts 52°
2026-04-20 22:52 53.30883 -2.36767 1540 ft 131 kts 52°
2026-04-20 22:52 53.31456 -2.35585 1360 ft 131 kts 52°
2026-04-20 22:52 53.32030 -2.34403 1157 ft 131 kts 51°
2026-04-20 22:53 53.32603 -2.33221 967 ft 131 kts 51°
2026-04-20 22:53 53.33176 -2.32040 775 ft 130 kts 52°
2026-04-20 22:53 53.33746 -2.30862 594 ft 130 kts 52°
2026-04-20 22:53 53.34317 -2.29699 412 ft 129 kts 51°
2026-04-20 22:54 53.34881 -2.28531 235 ft 127 kts 53°
2026-04-20 22:54 53.35340 -2.27574 251 ft 82 kts 52°
2026-04-20 22:54 53.35602 -2.27031 259 ft 46 kts 50°
2026-04-20 22:54 53.35747 -2.26731 265 ft 19 kts 49°
2026-04-20 22:55 53.35837 -2.26683 263 ft 12 kts 353°
2026-04-20 22:55 53.35907 -2.26702 257 ft 2 kts 347°
2026-04-20 22:55 53.35926 -2.26758 255 ft 9 kts 263°
2026-04-20 22:55 53.35889 -2.26857 255 ft 12 kts 228°
2026-04-20 22:56 53.35833 -2.26984 255 ft 15 kts 240°
2026-04-20 22:56 53.35797 -2.27091 255 ft 9 kts 246°
2026-04-20 22:56 53.35825 -2.27198 255 ft 12 kts 324°
2026-04-20 22:56 53.35864 -2.27221 255 ft 1 kts 345°
2026-04-20 22:57 53.35883 -2.27228 255 ft 5 kts 350°
2026-04-20 22:57 53.35928 -2.27238 255 ft 8 kts 354°
2026-04-20 22:57 53.35988 -2.27243 255 ft 7 kts 359°
2026-04-20 22:57 53.36001 -2.27202 255 ft 3 kts 96°
2026-04-20 22:58 53.36001 -2.27163 255 ft 2 kts 89°
2026-04-20 22:58 53.36001 -2.27144 255 ft 2 kts 90°
2026-04-20 22:58 53.36001 -2.27139 255 ft 0 kts 90°